User: anonymous   Login
Location: Unspecified
(0.0000°N, 0.0000°E)
Time: 08:19:25
(UTC+00:00)
Language:

GOMX 1 - Orbit

View from above orbital plane
View from above orbital plane
View from above satellite
View from above satellite

Ground track
Ground track

The orbit data is extracted from the following two-line orbital elements,

1 39423U 13066H   19345.78114591  .00000082  00000-0  25514-4 0  9996
2 39423  97.7927 275.2222 0176331 123.7177 238.0971 14.53078878321024
Epoch (UTC): 11 December 2019 18:44:51
Eccentricity: 0.0176331
inclination: 97.7927°
perigee height: 590 km
apogee height: 840 km
right ascension of ascending node: 275.2222°
argument of perigee: 123.7177°
revolutions per day: 14.53078878
mean anomaly at epoch: 238.0971°
orbit number at epoch: 32102

The dashed part of the orbit path shows where the satellite is in the earth's shadow,  

DLR